This is the latest recevied weather packets stored in our database for station/object N3FWE. If no packets are shown the sender has not sent any weather packets the latest 1 day(s).
| Time | Temp. | Humidity | Pressure | Rain* | Wind** | Luminosity | Snow |
|---|---|---|---|---|---|---|---|
| 1778006416 | 27.78° C | 38% | 1008.8 hPa | 0 mm | 2.24 m/s, 196° | - | - |
| 1778005815 | 27.22° C | 39% | 1008.9 hPa | 0 mm | 2.24 m/s, 211° | - | - |
| 1778005215 | 27.78° C | 38% | 1009 hPa | 0 mm | 2.68 m/s, 200° | - | - |
| 1778004615 | 27.78° C | 38% | 1009 hPa | 0 mm | 2.24 m/s, 259° | - | - |
| 1778004020 | 27.78° C | 39% | 1009 hPa | 0 mm | 2.24 m/s, 192° | - | - |
| 1778003415 | 27.78° C | 39% | 1009.3 hPa | 0 mm | 2.24 m/s, 140° | - | - |
| 1778002815 | 27.78° C | 38% | 1009.4 hPa | 0 mm | 2.24 m/s, 187° | - | - |
| 1778002215 | 27.78° C | 39% | 1009.4 hPa | 0 mm | 2.68 m/s, 219° | - | - |
| 1778001615 | 27.78° C | 37% | 1009.4 hPa | 0 mm | 2.24 m/s, 182° | - | - |
| 1778001015 | 27.78° C | 36% | 1009.4 hPa | 0 mm | 4.47 m/s, 205° | - | - |
| 1778000416 | 27.78° C | 37% | 1009.8 hPa | 0 mm | 3.58 m/s, 207° | - | - |
| 1777999816 | 27.78° C | 39% | 1009.8 hPa | 0 mm | 4.02 m/s, 238° | - | - |
| 1777999213 | 27.22° C | 39% | 1010 hPa | 0 mm | 4.02 m/s, 248° | - | - |
| 1777998614 | 27.22° C | 39% | 1010.3 hPa | 0 mm | 3.58 m/s, 267° | - | - |
| 1777998013 | 27.78° C | 41% | 1010.4 hPa | 0 mm | 3.58 m/s, 255° | - | - |
| 1777997414 | 27.22° C | 41% | 1010.6 hPa | 0 mm | 3.13 m/s, 233° | - | - |
| 1777996813 | 27.22° C | 42% | 1010.6 hPa | 0 mm | 3.58 m/s, 274° | - | - |
| 1777996214 | 27.22° C | 41% | 1010.6 hPa | 0 mm | 3.58 m/s, 260° | - | - |
| 1777995613 | 27.22° C | 40% | 1010.5 hPa | 0 mm | 2.68 m/s, 244° | - | - |
| 1777995015 | 27.22° C | 41% | 1010.5 hPa | 0 mm | 3.13 m/s, 234° | - | - |
| 1777994414 | 26.67° C | 45% | 1010.5 hPa | 0 mm | 2.24 m/s, 254° | - | - |
* Rain latest hour (hover to see other rain measurements)
** Current wind speed in m/s (hover to see current wind gust speed)